DateTimeUTC,F1_A11,F1_S11,BsB_S11,BsG_S11,BsR_S11,BbsB_S11,BbsG_S11,BbsR_S11,BaB_A11,BaG_A11,BaR_A11,Tu_S11,T_S11,Uu_S11,U_S11,P_S11,T1_A11
2021-08-11T17:00:00Z,00040200,20000000,,,,,,,-000.07,0000.23,0000.16,19.9,26.3,12.2,08.3,0675.5,31.1
2021-08-11T17:01:00Z,00040200,20000000,,,,,,,0000.20,0000.20,0000.07,19.9,26.3,12.2,08.3,0675.5,31.1
2021-08-11T17:02:00Z,00040200,20000000,,,,,,,-000.01,-000.15,0000.01,19.9,26.3,12.2,08.3,0675.5,31.1
2021-08-11T17:03:00Z,00040200,60000000,,,,,,,-000.22,-000.21,0000.14,19.9,26.3,12.2,08.3,0675.5,31.1
2021-08-11T17:04:00Z,00040200,40000000,0000.22,-000.08,-000.02,-000.18,-000.00,0000.13,0000.29,0000.47,0000.03,20.0,26.2,12.3,08.5,0676.4,31.1
2021-08-11T17:05:00Z,00040200,00000000,0000.68,0000.15,0000.44,0000.71,-000.01,0000.31,0000.33,0000.45,0000.11,20.1,26.1,12.5,08.6,0676.5,31.1
2021-08-11T17:06:00Z,00040200,00000000,0000.92,0000.06,0000.06,0000.45,0000.25,-000.06,0000.07,-000.29,0000.15,20.1,26.1,12.4,08.6,0676.5,31.1
2021-08-11T17:07:00Z,00040200,00000000,0000.37,0000.49,0000.57,-000.11,0000.21,0000.08,-000.63,-000.24,-000.56,20.1,26.1,12.4,08.6,0676.4,31.1
2021-08-11T17:08:00Z,00040200,00000000,0000.33,0000.54,-000.04,0000.15,0000.26,-000.00,0000.52,0000.01,0000.60,20.1,26.1,12.3,08.5,0676.4,31.1
2021-08-11T17:09:00Z,00040200,00000000,0000.46,0000.69,0000.09,-000.31,0000.24,-000.30,0000.01,0000.27,-000.51,20.1,26.1,12.4,08.6,0676.4,31.1
2021-08-11T17:10:00Z,00040200,00000000,0000.55,0000.09,0000.30,0000.03,0000.42,-000.02,0000.13,-000.25,0000.81,20.1,26.1,12.4,08.6,0676.4,31.1
2021-08-11T17:11:00Z,00040200,00000000,0000.59,0000.48,0000.05,0000.52,0000.35,-000.22,-000.23,0000.31,-000.42,20.1,26.1,12.4,08.6,0676.4,31.1
2021-08-11T17:12:00Z,00040200,00000000,-000.06,0000.39,0000.29,-000.11,0000.26,-000.15,0000.14,-000.07,-000.02,20.1,26.1,12.4,08.6,0676.4,31.1
2021-08-11T17:13:00Z,00040200,00000000,0000.80,0000.39,0000.28,-000.23,0000.10,0000.19,-000.16,0000.01,0000.09,20.1,26.1,12.4,08.6,0676.4,31.1
2021-08-11T17:14:00Z,00040200,00000000,-000.16,0000.45,0000.27,-000.34,0000.50,-000.09,-000.09,-000.26,0000.11,20.1,26.1,12.4,08.6,0676.4,31.1
2021-08-11T17:15:00Z,00040200,00000000,0000.36,0000.54,0000.10,0000.13,-000.04,-000.33,0000.29,0000.32,0000.09,20.1,26.1,12.5,08.7,0676.4,31.1
2021-08-11T17:16:00Z,00040200,00000000,0000.38,0000.61,-000.00,0000.07,0000.18,-000.06,0000.22,0000.13,-000.01,20.1,26.1,12.3,08.6,0676.4,31.1
2021-08-11T17:17:00Z,00040200,00000000,0000.73,0000.29,0000.07,0000.24,0000.23,-000.16,-000.52,-000.18,-000.04,20.1,26.1,12.4,08.6,0676.3,31.1
2021-08-11T17:18:00Z,00040200,00000000,0000.81,0000.66,0000.21,0000.23,-000.02,-000.11,-000.37,-000.25,-000.32,20.1,26.1,12.1,08.4,0676.3,31.2
2021-08-11T17:19:00Z,00040200,00000000,0001.10,0000.44,0000.17,0000.41,0000.20,-000.21,0000.36,0000.23,0000.32,20.1,26.1,12.1,08.4,0676.3,31.1
2021-08-11T17:20:00Z,00040200,00000000,-000.19,0000.48,-000.13,0000.17,0000.08,-000.16,0000.10,-000.16,-000.46,20.1,26.1,12.2,08.5,0676.3,31.1
2021-08-11T17:21:00Z,00040200,00000000,-000.17,0000.32,0000.21,-000.15,0000.37,0000.12,0000.24,0000.10,0000.44,20.1,26.1,12.2,08.5,0676.3,31.1
2021-08-11T17:22:00Z,00040200,00000000,-000.59,0000.25,0000.09,0000.07,0000.13,0000.01,-000.19,-000.07,0000.12,20.1,26.1,12.3,08.5,0676.3,31.2
2021-08-11T17:23:00Z,00040200,00000000,0000.19,0000.33,0000.37,0000.20,-000.00,-000.06,-000.06,-000.09,-000.14,20.1,26.1,12.2,08.5,0676.3,31.2
2021-08-11T17:24:00Z,00040200,00000000,0000.58,0000.59,0000.22,0000.54,0000.39,-000.02,0000.27,0000.18,-000.27,20.1,26.1,12.1,08.5,0676.3,31.2
2021-08-11T17:25:00Z,00040200,00000000,-000.40,0000.45,0000.28,0000.13,0000.08,-000.31,-000.13,-000.21,0000.17,20.1,26.1,12.1,08.5,0676.3,31.1
2021-08-11T17:26:00Z,00040200,00000000,-000.81,0000.36,0000.12,0000.13,0000.44,-000.17,-000.52,-000.08,-000.20,20.1,26.1,11.9,08.3,0676.3,31.1
2021-08-11T17:27:00Z,00040200,00000000,0000.70,0000.50,0000.28,-000.14,0000.42,0000.27,0000.05,-000.14,-000.27,20.1,26.1,11.9,08.3,0676.3,31.1
2021-08-11T17:28:00Z,00040200,00000000,0000.19,0000.23,0000.16,0000.24,0000.08,-000.09,0000.57,0000.40,0000.68,20.1,26.1,11.8,08.2,0676.3,31.1
2021-08-11T17:29:00Z,00040200,00000000,-000.62,0000.26,0000.44,0000.25,0000.53,0000.02,-000.29,0000.01,-000.22,20.1,26.1,11.9,08.3,0676.3,31.1
2021-08-11T17:30:00Z,00040200,00000000,-000.18,0000.69,-000.26,0000.04,0000.11,-000.19,-000.27,-000.13,0000.05,20.1,26.1,11.9,08.3,0676.3,31.2
2021-08-11T17:31:00Z,00040200,00000000,0000.24,0000.40,0000.34,0000.20,0000.37,0000.21,0000.55,0000.09,0000.18,20.1,26.1,11.9,08.3,0676.3,31.2
2021-08-11T17:32:00Z,00040200,00000000,0000.60,0000.24,0000.01,0000.08,0000.13,0000.30,0000.17,0000.08,0000.34,20.1,26.1,12.0,08.3,0676.3,31.1
2021-08-11T17:33:00Z,00040200,00000000,0000.04,0000.32,-000.01,0000.43,0000.25,-000.04,0000.31,0000.17,-000.04,20.1,26.1,12.1,08.4,0676.3,31.1
2021-08-11T17:34:00Z,00040200,00000000,0000.10,0000.54,-000.07,0000.66,0000.04,0000.02,-000.21,0000.53,0000.33,20.1,26.1,12.1,08.4,0676.3,31.1
2021-08-11T17:35:00Z,00040200,00000000,-000.04,0000.50,0000.25,0000.03,-000.04,0000.26,0000.44,-000.18,0000.03,20.1,26.1,12.1,08.4,0676.3,31.1
2021-08-11T17:36:00Z,00040200,00000000,0000.20,0000.78,-000.06,-000.07,0000.20,-000.48,-000.34,0000.09,-000.18,20.1,26.1,12.1,08.4,0676.3,31.1
2021-08-11T17:37:00Z,00040200,00000000,0000.24,0000.53,0000.19,0000.55,0000.37,-000.07,0000.22,-000.02,0000.00,20.1,26.1,12.2,08.5,0676.3,31.1
2021-08-11T17:38:00Z,00040200,00000000,0000.38,0000.43,0000.02,-000.30,0000.21,0000.19,-000.06,0000.10,0000.05,20.1,26.1,12.2,08.5,0676.3,31.1
2021-08-11T17:39:00Z,00040200,00000000,0000.21,0000.53,0000.19,-000.69,0000.07,-000.21,0000.30,-000.15,0000.09,20.1,26.1,12.2,08.5,0676.4,31.1
2021-08-11T17:40:00Z,00040200,00000000,0000.61,0000.34,0000.34,0000.05,0000.04,0000.10,-000.14,0000.14,0000.00,20.1,26.1,12.2,08.5,0676.4,31.1
2021-08-11T17:41:00Z,00040200,00000000,0000.10,0000.42,-000.05,0000.46,0000.15,-000.07,0000.01,0000.22,-000.17,20.1,26.1,12.2,08.5,0676.3,31.1
2021-08-11T17:42:00Z,00040200,00000000,-000.37,0000.02,-000.01,0000.69,-000.13,0000.09,-000.34,-000.13,0000.39,20.1,26.1,12.1,08.4,0676.3,31.1
2021-08-11T17:43:00Z,00040200,00000000,0000.46,0000.24,0000.32,0000.36,0000.04,-000.24,0000.28,0000.09,-000.09,20.1,26.1,12.1,08.5,0676.3,31.1
2021-08-11T17:44:00Z,00040200,00000000,0000.33,0000.42,0000.20,-000.56,0000.11,-000.09,0000.14,0000.16,0000.53,20.1,26.1,12.2,08.5,0676.3,31.1
2021-08-11T17:45:00Z,00040200,00000000,0000.23,0000.29,0000.07,0000.18,0000.20,-000.16,-000.07,-000.01,-000.31,20.1,26.1,12.2,08.5,0676.3,31.1
2021-08-11T17:46:00Z,00040200,00000000,0000.17,0000.61,0000.30,-000.22,0000.28,-000.05,0000.43,0000.20,-000.03,20.1,26.1,12.0,08.4,0676.3,31.1
2021-08-11T17:47:00Z,00040200,00000000,0000.33,0000.66,0000.38,0000.21,0000.16,0000.15,-000.19,-000.13,0000.03,20.1,26.1,12.1,08.4,0676.3,31.1
2021-08-11T17:48:00Z,00040200,00000000,0000.20,0000.39,0000.10,-000.05,0000.40,-000.16,0000.29,-000.03,0000.25,20.1,26.1,12.1,08.5,0676.3,31.1
2021-08-11T17:49:00Z,00040200,00000000,0000.15,0000.51,-000.04,0000.23,0000.35,0000.04,-000.07,0000.20,-000.25,20.1,26.1,12.0,08.4,0676.3,31.1
2021-08-11T17:50:00Z,00040200,00000000,0000.59,0000.51,-000.05,0000.08,0000.43,0000.08,-000.05,-000.03,0000.36,20.1,26.1,12.1,08.4,0676.3,31.1
2021-08-11T17:51:00Z,00040200,00000000,0000.38,0000.48,0000.32,-000.24,0000.76,0000.00,0000.38,0000.53,0000.05,20.1,26.1,12.1,08.4,0676.3,31.1
2021-08-11T17:52:00Z,00040200,00000000,0000.37,0000.01,0000.44,-000.01,0000.38,0000.07,0000.05,-000.27,0000.09,20.1,26.1,12.2,08.5,0676.3,31.1
2021-08-11T17:53:00Z,00040200,00000000,0000.55,0000.39,0000.21,-000.12,0000.13,0000.03,0000.10,0000.43,0000.03,20.1,26.1,12.2,08.5,0676.3,31.1
2021-08-11T17:54:00Z,00040200,00000000,0000.10,0000.49,0000.41,0000.01,0000.25,0000.24,0000.48,0000.15,0000.32,20.1,26.1,12.3,08.5,0676.4,31.1
2021-08-11T17:55:00Z,00040200,00000000,0000.12,0000.37,-000.22,-000.18,0000.14,-000.47,0000.00,0000.07,0000.08,20.1,26.1,12.3,08.6,0676.4,31.1
2021-08-11T17:56:00Z,00040200,00000000,0000.02,0000.56,0000.34,-000.18,0000.09,0000.05,-000.28,0000.03,0000.17,20.2,26.1,12.4,08.6,0676.4,31.1
2021-08-11T17:57:00Z,00040200,40000000,,,,,,,0000.37,-000.08,-000.29,20.2,26.2,12.5,08.7,0676.4,31.1
2021-08-11T17:58:00Z,00040200,60000000,,,,,,,-000.20,-000.41,0000.24,19.9,26.2,12.3,08.4,0675.4,31.1
2021-08-11T17:59:00Z,00040200,20000000,,,,,,,-000.45,-000.02,-000.59,19.9,26.3,12.5,08.5,0675.4,31.1
